Location: Newark
(51.2625°N, 13.3939°E)
Time: 06:18:02
(UTC+00:00)

Explorer 7 - Pass Details

Date: 17 November 2019
Orbit: 485 x 680 km, 50.3° (Epoch: 06 December)

Event Time Altitude Azimuth Distance (km) Brightness Sun altitude
Rises 03:56:42 0° 278° (W) 2,790 - -23.1°
Reaches altitude 10° 03:59:03 10° 275° (W) 1,856 - -22.7°
Exits shadow 04:03:11 65° 198° (SSW) 595 6.8 -22.1°
Maximum altitude 04:03:13 65° 194° (SSW) 594 6.8 -22.1°
Drops below altitude 10° 04:07:08 10° 113° (ESE) 1,744 10.4 -21.5°
Sets 04:09:17 0° 110° (ESE) 2,604 11.6 -21.1°
